This is the latest recevied weather packets stored in our database for station/object OK2JCZ-6. If no packets are shown the sender has not sent any weather packets the latest 10 day(s).
| Time | Temp. | Humidity | Pressure | Rain* | Wind** | Luminosity | Snow |
|---|---|---|---|---|---|---|---|
| 1777421076 | 2.22° C | 36% | 1022.4 hPa | 0 mm | - | - | - |
| 1777418976 | 2.22° C | 36% | 1022.3 hPa | 0 mm | - | - | - |
| 1777415076 | 2.78° C | 37% | 1022.2 hPa | 0 mm | - | - | - |
| 1777414176 | 2.78° C | 37% | 1022.1 hPa | 0 mm | - | - | - |
| 1777413876 | 3.33° C | 37% | 1022 hPa | 0 mm | - | - | - |
| 1777412676 | 3.89° C | 35% | 1022 hPa | 0 mm | - | - | - |
| 1777411776 | 4.44° C | 34% | 1021.8 hPa | 0 mm | - | - | - |
| 1777411476 | 5° C | 34% | 1021.8 hPa | 0 mm | - | - | - |
| 1777410876 | 5° C | 34% | 1021.8 hPa | 0 mm | - | - | - |
| 1777410576 | 5° C | 34% | 1021.8 hPa | 0 mm | - | - | - |
| 1777409076 | 5.56° C | 33% | 1021.9 hPa | 0 mm | - | - | - |
| 1777408776 | 5.56° C | 34% | 1021.8 hPa | 0 mm | - | - | - |
| 1777408476 | 6.11° C | 34% | 1021.8 hPa | 0 mm | - | - | - |
| 1777408176 | 6.11° C | 33% | 1021.7 hPa | 0 mm | - | - | - |
| 1777407879 | 6.67° C | 33% | 1021.6 hPa | 0 mm | - | - | - |
| 1777407576 | 6.67° C | 33% | 1021.6 hPa | 0 mm | - | - | - |
| 1777406376 | 7.22° C | 31% | 1021.4 hPa | 0 mm | - | - | - |
| 1777404876 | 7.78° C | 32% | 1021.1 hPa | 0 mm | - | - | - |
| 1777404576 | 7.78° C | 33% | 1021 hPa | 0 mm | - | - | - |
| 1777403976 | 7.78° C | 34% | 1020.9 hPa | 0 mm | - | - | - |
| 1777403676 | 8.33° C | 35% | 1020.9 hPa | 0 mm | - | - | - |
| 1777403376 | 8.33° C | 35% | 1020.9 hPa | 0 mm | - | - | - |
| 1777401876 | 9.44° C | 37% | 1020.7 hPa | 0 mm | - | - | - |
| 1777400376 | 9.44° C | 38% | 1020.3 hPa | 0 mm | - | - | - |
| 1777400076 | 10° C | 38% | 1020.2 hPa | 0 mm | - | - | - |
* Rain latest hour (hover to see other rain measurements)
** Current wind speed in m/s (hover to see current wind gust speed)